CW9414 Weather Reports


Display with metric or nautical units.
time (UTC)temp
F
wind
direction
speed
MPH
gust
MPH
rain 1hr
in
rain 24hr
in
rain mn
in
humidity
%
barometer
mb
20260508051404 0 0 0.0 0.0 0.00 0.00 0.00 100 1008.7
20260508050404 0 0 0.0 0.0 0.00 0.00 0.00 100 1008.7
20260508045404 0 0 0.0 0.0 0.00 0.00 0.00 100 1008.9
20260508044404 0 0 0.0 0.0 0.00 0.00 0.00 100 1008.7
20260508043405 0 0 0.0 0.0 0.00 0.00 0.00 100 1008.7
20260508042405 0 0 0.0 0.0 0.00 0.00 0.00 100 1009.0
20260508041405 0 0 0.0 0.0 0.00 0.00 0.00 100 1009.1
20260508040405 0 0 0.0 0.0 0.00 0.00 0.00 100 1009.1
20260508035404 0 0 0.0 0.0 0.00 0.00 0.00 100 1007.7
20260508034408 0 0 0.0 0.0 0.00 0.00 0.00 100 1008.5
20260508033405 0 0 0.0 0.0 0.00 0.00 0.00 100 1008.5
20260508032404 0 0 0.0 0.0 0.00 0.00 0.00 100 1009.0
20260508031405 0 0 0.0 0.0 0.00 0.00 0.00 100 1009.1
20260508030404 0 0 0.0 0.0 0.00 0.00 0.00 100 1009.1
20260508025404 0 0 0.0 0.0 0.00 0.00 0.00 100 1009.1
20260508024408 0 0 0.0 0.0 0.00 0.00 0.00 100 1009.3
20260508023407 0 0 0.0 0.0 0.00 0.00 0.00 100 1009.3
20260508022404 0 0 0.0 0.0 0.00 0.00 0.00 100 1009.0
20260508021405 0 0 0.0 0.0 0.00 0.00 0.00 100 1008.9
20260508020404 0 0 0.0 0.0 0.00 0.00 0.00 100 1008.9
20260508015405 0 0 0.0 0.0 0.00 0.00 0.00 100 1009.0
20260508014404 0 0 0.0 0.0 0.00 0.00 0.00 100 1008.9
20260508013404 0 0 0.0 0.0 0.00 0.00 0.00 100 1008.9
20260508012504 0 0 0.0 0.0 0.00 0.00 0.00 100 1008.9
20260508011505 0 0 0.0 0.0 0.00 0.00 0.00 100 1008.9
20260508010504 0 0 0.0 0.0 0.00 0.00 0.00 100 1008.9
20260508005505 0 0 0.0 0.0 0.00 0.00 0.00 100 1009.1
20260508004504 0 0 0.0 0.0 0.00 0.00 0.00 100 1008.7
20260508003504 0 0 0.0 0.0 0.00 0.00 0.00 100 1008.7
20260508002504 0 0 0.0 0.0 0.00 0.00 0.00 100 1008.9
20260508001504 0 0 0.0 0.0 0.00 0.00 0.00 100 1009.0
20260508000507 0 0 0.0 0.0 0.00 0.00 0.00 100 1009.0
20260507235508 0 0 0.0 0.0 0.00 0.00 0.00 100 1009.0
20260507234504 0 0 0.0 0.0 0.00 0.00 0.00 100 1009.0
20260507233504 0 0 0.0 0.0 0.00 0.00 0.00 100 1009.0
20260507232508 0 0 0.0 0.0 0.00 0.00 0.00 100 1008.6
20260507231504 0 0 0.0 0.0 0.00 0.00 0.00 100 1008.5
20260507230504 0 0 0.0 0.0 0.00 0.00 0.00 100 1008.5
20260507225504 0 0 0.0 0.0 0.00 0.00 0.00 100 1008.5
20260507224504 0 0 0.0 0.0 0.00 0.00 0.00 100 1008.1
20260507223504 0 0 0.0 0.0 0.00 0.00 0.00 100 1008.1
20260507222504 0 0 0.0 0.0 0.00 0.00 0.00 100 1008.4
20260507221504 0 0 0.0 0.0 0.00 0.00 0.00 100 1008.5
20260507220504 0 0 0.0 0.0 0.00 0.00 0.00 100 1008.5
20260507215504 0 0 0.0 0.0 0.00 0.00 0.00 100 1008.6
20260507214504 0 0 0.0 0.0 0.00 0.00 0.00 100 1008.9
20260507213504 0 0 0.0 0.0 0.00 0.00 0.00 100 1008.9
20260507212504 0 0 0.0 0.0 0.00 0.00 0.00 100 1009.0
20260507211503 0 0 0.0 0.0 0.00 0.00 0.00 100 1009.2
20260507210504 0 0 0.0 0.0 0.00 0.00 0.00 100 1009.2
20260507205504 0 0 0.0 0.0 0.00 0.00 0.00 100 1009.2
20260507204504 0 0 0.0 0.0 0.00 0.00 0.00 100 1009.4
20260507203508 0 0 0.0 0.0 0.00 0.00 0.00 100 1009.4
20260507202507 0 0 0.0 0.0 0.00 0.00 0.00 100 1009.5
20260507201505 0 0 0.0 0.0 0.00 0.00 0.00 100 1009.5
20260507200504 0 0 0.0 0.0 0.00 0.00 0.00 100 1009.5
20260507195504 0 0 0.0 0.0 0.00 0.00 0.00 100 1009.5
20260507194503 0 0 0.0 0.0 0.00 0.00 0.00 100 1009.8
20260507193504 0 0 0.0 0.0 0.00 0.00 0.00 100 1009.8
20260507192504 0 0 0.0 0.0 0.00 0.00 0.00 100 1010.4
20260507191504 0 0 0.0 0.0 0.00 0.00 0.00 100 1010.6
20260507190505 0 0 0.0 0.0 0.00 0.00 0.00 100 1010.6
20260507185504 0 0 0.0 0.0 0.00 0.00 0.00 100 1010.8
20260507184507 0 0 0.0 0.0 0.00 0.00 0.00 100 1011.0
20260507183504 0 0 0.0 0.0 0.00 0.00 0.00 100 1011.0
20260507182504 0 0 0.0 0.0 0.00 0.00 0.00 100 1011.0
20260507120414 67 25 1.0 4.0 0.00 0.00 0.00 81 1010.7
20260507115414 67 28 0.0 3.0 0.00 0.00 0.00 81 1010.7
20260507114411 67 28 0.0 5.0 0.00 0.00 0.00 81 1009.9
20260507113410 67 10 1.0 4.0 0.00 0.00 0.00 81 1009.9
20260507112413 67 25 1.0 7.0 0.00 0.00 0.00 81 1009.7
20260507111414 67 17 0.0 5.0 0.00 0.00 0.00 81 1009.7
20260507110413 67 16 2.0 4.0 0.00 0.00 0.00 81 1009.7
20260507105410 67 15 1.0 7.0 0.00 0.00 0.00 81 1009.6
20260507104414 67 15 0.0 2.0 0.00 0.00 0.00 81 1009.6
20260507103410 67 15 0.0 3.0 0.00 0.00 0.00 81 1009.6
20260507102410 67 15 0.0 4.0 0.00 0.00 0.00 81 1009.6
20260507101410 67 15 2.0 3.0 0.00 0.00 0.00 81 1009.4
20260507100411 67 13 0.0 4.0 0.00 0.00 0.00 81 1009.4
20260507095410 67 13 1.0 3.0 0.00 0.00 0.00 81 1009.2
20260507094414 67 13 0.0 2.0 0.00 0.00 0.00 80 1009.0
20260507093410 67 13 1.0 3.0 0.00 0.00 0.00 80 1009.0
20260507092410 67 20 0.0 4.0 0.00 0.00 0.00 80 1008.6
20260507091410 67 20 0.0 1.0 0.00 0.00 0.00 80 1008.8
20260507090410 67 20 1.0 5.0 0.00 0.00 0.00 79 1008.8
20260507085410 67 17 0.0 4.0 0.00 0.00 0.00 79 1009.1
20260507084410 67 17 0.0 3.0 0.00 0.00 0.00 79 1009.2
20260507083410 67 12 0.0 2.0 0.00 0.00 0.00 79 1009.2
20260507082410 67 12 2.0 4.0 0.00 0.00 0.00 79 1009.1
20260507081410 67 11 1.0 4.0 0.00 0.00 0.00 78 1009.0
20260507080410 67 13 2.0 3.0 0.00 0.00 0.00 78 1009.0
20260507075410 67 29 1.0 10.0 0.00 0.00 0.00 78 1009.0
20260507074410 67 25 1.0 6.0 0.00 0.00 0.00 78 1009.3
20260507073413 67 15 3.0 3.0 0.00 0.00 0.00 78 1009.3
20260507072410 67 15 0.0 2.0 0.00 0.00 0.00 78 1009.4
20260507071410 68 18 0.0 6.0 0.00 0.00 0.00 78 1009.6
20260507070409 68 19 1.0 7.0 0.00 0.00 0.00 78 1009.6
20260507065410 68 22 3.0 7.0 0.00 0.00 0.00 77 1009.5
20260507064410 68 0 2.0 5.0 0.00 0.00 0.00 78 1009.5
20260507063410 68 5 1.0 5.0 0.00 0.00 0.00 77 1009.5
20260507062410 68 5 0.0 3.0 0.00 0.00 0.00 77 1009.6
20260507061410 68 5 2.0 5.0 0.00 0.00 0.00 77 1009.0
20260507060410 68 338 2.0 4.0 0.00 0.00 0.00 77 1009.0
20260507055410 69 324 2.0 4.0 0.00 0.00 0.00 77 1009.1
20260507054411 69 323 1.0 4.0 0.00 0.00 0.00 77 1009.0
20260507053410 69 325 1.0 7.0 0.00 0.00 0.00 76 1009.0
20260507052410 69 16 0.0 3.0 0.00 0.00 0.00 76 1008.7